TOM534P FMCZ-LGKR

Flight info

Callsign TOM534P
Flight time 8h 37m
Altitude 39000
Route DZP DCT MAROF DCT BERIL DCT ITLOX/N0443F400 DCT MAV DCT ALRAP DCT SISID DCT TANSA UL613 XANIS UL995 VARDI
Aircraft B738/M-SDFGHIJ1RWXYZ/LB1

Departure

Time 2026-04-23 08:07
Airport Dzaoudzi Pamandzi International Airport (FMCZ)

Arrival

Time 2026-04-23 16:45
Airport Corfu Ioannis Kapodistrias International Airport (LGKR)
Time Latitude Longitude Altitude Speed Heading
2026-04-23 07:26 -12.80310 45.28187 37 ft 0 kts 82°
2026-04-23 07:58 -12.80312 45.28179 37 ft 3 kts 84°
2026-04-23 07:59 -12.80313 45.28158 37 ft 3 kts 95°
2026-04-23 07:59 -12.80309 45.28138 37 ft 3 kts 114°
2026-04-23 07:59 -12.80299 45.28122 36 ft 3 kts 146°
2026-04-23 07:59 -12.80291 45.28117 37 ft 0 kts 163°
2026-04-23 08:03 -12.80292 45.28117 37 ft 1 kts 163°
2026-04-23 08:03 -12.80324 45.28128 37 ft 8 kts 162°
2026-04-23 08:03 -12.80374 45.28114 37 ft 8 kts 229°
2026-04-23 08:04 -12.80402 45.28065 36 ft 8 kts 240°
2026-04-23 08:04 -12.80432 45.28013 37 ft 10 kts 239°
2026-04-23 08:04 -12.80457 45.27944 37 ft 11 kts 283°
2026-04-23 08:04 -12.80395 45.27896 34 ft 11 kts 330°
2026-04-23 08:05 -12.80328 45.27855 33 ft 11 kts 329°
2026-04-23 08:05 -12.80263 45.27816 36 ft 11 kts 329°
2026-04-23 08:05 -12.80215 45.27763 36 ft 9 kts 296°
2026-04-23 08:05 -12.80177 45.27743 35 ft 5 kts 26°
2026-04-23 08:06 -12.80173 45.27760 36 ft 2 kts 121°
2026-04-23 08:06 -12.80182 45.27767 36 ft 2 kts 146°
2026-04-23 08:06 -12.80191 45.27773 36 ft 1 kts 146°
2026-04-23 08:06 -12.80200 45.27778 36 ft 2 kts 146°
2026-04-23 08:07 -12.80260 45.27816 35 ft 36 kts 149°
2026-04-23 08:07 -12.80709 45.28084 36 ft 110 kts 150°
2026-04-23 08:07 -12.81527 45.28573 283 ft 147 kts 148°
2026-04-23 08:07 -12.82452 45.29110 996 ft 155 kts 150°
2026-04-23 08:08 -12.83396 45.29682 1732 ft 167 kts 149°
2026-04-23 08:08 -12.84469 45.30342 2265 ft 190 kts 149°
2026-04-23 08:08 -12.85669 45.31049 2691 ft 209 kts 149°
2026-04-23 08:08 -12.86989 45.31822 3077 ft 232 kts 149°
2026-04-23 08:09 -12.88433 45.32682 3673 ft 246 kts 149°
2026-04-23 08:09 -12.89819 45.33744 4474 ft 254 kts 128°
2026-04-23 08:09 -12.90328 45.34827 5087 ft 259 kts 104°
2026-04-23 08:09 -12.90304 45.36685 6054 ft 265 kts 80°
2026-04-23 08:10 -12.89575 45.38430 6976 ft 272 kts 60°
2026-04-23 08:10 -12.88426 45.40013 7790 ft 280 kts 56°
2026-04-23 08:10 -12.85929 45.43156 9599 ft 286 kts 54°
2026-04-23 08:11 -12.84657 45.44748 10385 ft 293 kts 54°
2026-04-23 08:11 -12.83338 45.46413 10628 ft 319 kts 54°
2026-04-23 08:11 -12.81904 45.48230 11086 ft 334 kts 54°
2026-04-23 08:11 -12.80426 45.50108 11753 ft 341 kts 54°
2026-04-23 08:12 -12.78929 45.52012 12514 ft 345 kts 53°
2026-04-23 08:12 -12.77411 45.53947 13234 ft 350 kts 53°
2026-04-23 08:12 -12.75872 45.55912 13885 ft 357 kts 54°
2026-04-23 08:12 -12.74309 45.57910 14555 ft 360 kts 53°
2026-04-23 08:13 -12.72742 45.59912 15274 ft 361 kts 54°
2026-04-23 08:13 -12.71191 45.61894 15973 ft 362 kts 53°
2026-04-23 08:13 -12.69611 45.63915 16652 ft 365 kts 53°
2026-04-23 08:13 -12.68021 45.65947 17324 ft 367 kts 53°
2026-04-23 08:14 -12.66418 45.67998 17964 ft 370 kts 53°
2026-04-23 08:14 -12.64799 45.70067 18569 ft 372 kts 53°
2026-04-23 08:14 -12.63166 45.72155 19054 ft 377 kts 53°
2026-04-23 08:14 -12.61516 45.74264 19534 ft 382 kts 54°
2026-04-23 08:15 -12.59847 45.76396 20037 ft 385 kts 54°
2026-04-23 08:15 -12.58164 45.78546 20544 ft 389 kts 54°
2026-04-23 08:15 -12.56464 45.80717 21022 ft 393 kts 54°
2026-04-23 08:15 -12.54748 45.82908 21511 ft 396 kts 55°
2026-04-23 08:16 -12.53053 45.85071 21995 ft 399 kts 55°
2026-04-23 08:16 -12.51329 45.87271 22468 ft 402 kts 56°
2026-04-23 08:16 -12.49572 45.89513 22929 ft 406 kts 56°
2026-04-23 08:16 -12.47795 45.91780 23375 ft 409 kts 56°
2026-04-23 08:17 -12.46007 45.94059 23795 ft 412 kts 56°
2026-04-23 08:17 -12.44202 45.96360 24157 ft 415 kts 56°
2026-04-23 08:17 -12.42385 45.98676 24516 ft 419 kts 56°
2026-04-23 08:17 -12.40557 46.01005 24863 ft 422 kts 56°
2026-04-23 08:18 -12.38708 46.03360 25232 ft 425 kts 56°
2026-04-23 08:18 -12.36848 46.05730 25598 ft 428 kts 56°
2026-04-23 08:18 -12.34992 46.08069 25947 ft 432 kts 52°
2026-04-23 08:18 -12.32620 46.10028 26233 ft 448 kts 31°
2026-04-23 08:19 -12.29672 46.11135 26619 ft 456 kts 15°
2026-04-23 08:19 -12.26492 46.11452 26979 ft 463 kts
2026-04-23 08:19 -12.23254 46.11314 27339 ft 466 kts 358°
2026-04-23 08:19 -12.20003 46.11108 27651 ft 470 kts 358°
2026-04-23 08:20 -12.16759 46.10887 27969 ft 473 kts 358°
2026-04-23 08:20 -12.13469 46.10669 28309 ft 475 kts 358°
2026-04-23 08:20 -12.10154 46.10463 28646 ft 477 kts 358°
2026-04-23 08:20 -12.06832 46.10272 28971 ft 479 kts 358°
2026-04-23 08:21 -12.03501 46.10091 29289 ft 482 kts 358°
2026-04-23 08:21 -12.00138 46.09915 29596 ft 484 kts 358°
2026-04-23 08:21 -11.96767 46.09741 29902 ft 486 kts 358°
2026-04-23 08:21 -11.93380 46.09567 30169 ft 488 kts 358°
2026-04-23 08:22 -11.89980 46.09392 30445 ft 490 kts 358°
2026-04-23 08:22 -11.86576 46.09217 30741 ft 490 kts 358°
2026-04-23 08:22 -11.83165 46.09041 31014 ft 491 kts 358°
2026-04-23 08:22 -11.79737 46.08863 31268 ft 493 kts 358°
2026-04-23 08:23 -11.76304 46.08685 31508 ft 495 kts 358°
2026-04-23 08:23 -11.72861 46.08506 31754 ft 496 kts 358°
2026-04-23 08:23 -11.69413 46.08328 32053 ft 496 kts 358°
2026-04-23 08:23 -11.66020 46.08152 32417 ft 494 kts 358°
2026-04-23 08:24 -11.62598 46.07974 32846 ft 491 kts 357°
2026-04-23 08:24 -11.59187 46.07797 33234 ft 489 kts 357°
2026-04-23 08:24 -11.55793 46.07622 33574 ft 488 kts 357°
2026-04-23 08:24 -11.52402 46.07446 33892 ft 488 kts 357°
2026-04-23 08:25 -11.49017 46.07271 34205 ft 486 kts 357°
2026-04-23 08:25 -11.45636 46.07096 34535 ft 484 kts 357°
2026-04-23 08:25 -11.42270 46.06922 34875 ft 482 kts 357°
2026-04-23 08:25 -11.38934 46.06750 35197 ft 480 kts 357°
2026-04-23 08:26 -11.35641 46.06580 35534 ft 478 kts 357°
2026-04-23 08:26 -11.32329 46.06408 35877 ft 475 kts 357°
2026-04-23 08:26 -11.29023 46.06238 36185 ft 474 kts 357°
2026-04-23 08:26 -11.25732 46.06068 36448 ft 473 kts 357°
2026-04-23 08:27 -11.22440 46.05898 36723 ft 472 kts 357°
2026-04-23 08:27 -11.19167 46.05729 37031 ft 470 kts 357°
2026-04-23 08:27 -11.15898 46.05560 37334 ft 468 kts 357°
2026-04-23 08:27 -11.12648 46.05392 37610 ft 467 kts 357°
2026-04-23 08:28 -11.09451 46.05227 37899 ft 465 kts 357°
2026-04-23 08:28 -11.06216 46.05060 38174 ft 464 kts 357°
2026-04-23 08:28 -11.02995 46.04894 38413 ft 463 kts 357°
2026-04-23 08:28 -10.99778 46.04728 38616 ft 463 kts 357°
2026-04-23 08:29 -10.96555 46.04562 38794 ft 462 kts 357°
2026-04-23 08:29 -10.93352 46.04397 38949 ft 462 kts 357°
2026-04-23 08:29 -10.86881 46.04064 38940 ft 464 kts 357°
2026-04-23 08:30 -10.80454 46.03733 38939 ft 460 kts 356°
2026-04-23 08:30 -10.74088 46.03404 38940 ft 456 kts 356°
2026-04-23 08:31 -10.67811 46.03080 38937 ft 453 kts 356°
2026-04-23 08:31 -10.61495 46.02755 38954 ft 457 kts 356°
2026-04-23 08:32 -10.55082 46.02425 38950 ft 464 kts 356°
2026-04-23 08:32 -10.48589 46.02092 38939 ft 469 kts 356°
2026-04-23 08:33 -10.42068 46.01757 38930 ft 466 kts 356°
2026-04-23 08:33 -10.35704 46.01431 38929 ft 457 kts 356°
2026-04-23 08:34 -10.29364 46.01105 38937 ft 454 kts 356°
2026-04-23 08:34 -10.23017 46.00780 38948 ft 458 kts 356°
2026-04-23 08:35 -10.16585 46.00450 38952 ft 466 kts 356°
2026-04-23 08:35 -10.10107 46.00118 38943 ft 470 kts 356°
2026-04-23 08:36 -10.03624 45.99786 38924 ft 461 kts 356°
2026-04-23 08:36 -9.97251 45.99378 38923 ft 456 kts 354°
2026-04-23 08:37 -9.91003 45.98683 38927 ft 453 kts 352°
2026-04-23 08:37 -9.84700 45.97923 38949 ft 459 kts 352°
2026-04-23 08:38 -9.78296 45.97176 38945 ft 466 kts 353°
2026-04-23 08:38 -9.71860 45.96449 38926 ft 465 kts 353°
2026-04-23 08:39 -9.65495 45.95739 38921 ft 456 kts 353°
2026-04-23 08:39 -9.59195 45.95037 38925 ft 454 kts 352°
2026-04-23 08:40 -9.52914 45.94335 38936 ft 453 kts 352°
2026-04-23 08:40 -9.46642 45.93635 38933 ft 453 kts 353°
2026-04-23 08:41 -9.40409 45.92939 38932 ft 453 kts 353°
2026-04-23 08:41 -9.34134 45.92239 38928 ft 454 kts 353°
2026-04-23 08:42 -9.27841 45.91537 38925 ft 455 kts 353°
2026-04-23 08:42 -9.21524 45.90832 38936 ft 456 kts 353°
2026-04-23 08:43 -9.15238 45.90131 38933 ft 457 kts 353°
2026-04-23 08:43 -9.08908 45.89426 38927 ft 457 kts 353°
2026-04-23 08:44 -9.02576 45.88721 38920 ft 457 kts 353°
2026-04-23 08:44 -8.96288 45.88021 38918 ft 457 kts 353°
2026-04-23 08:45 -8.89964 45.87317 38913 ft 455 kts 352°
2026-04-23 08:45 -8.83677 45.86618 38913 ft 453 kts 353°
2026-04-23 08:46 -8.77448 45.85925 38916 ft 451 kts 353°
2026-04-23 08:46 -8.71215 45.85232 38916 ft 449 kts 353°
2026-04-23 08:47 -8.65007 45.84542 38919 ft 447 kts 353°
2026-04-23 08:47 -8.58839 45.83856 38914 ft 445 kts 353°
2026-04-23 08:48 -8.52729 45.83177 38913 ft 443 kts 353°
2026-04-23 08:48 -8.46592 45.82496 38915 ft 443 kts 353°
2026-04-23 08:49 -8.40463 45.81815 38927 ft 442 kts 353°
2026-04-23 08:49 -8.34337 45.81135 38919 ft 442 kts 353°
2026-04-23 08:50 -8.28380 45.80475 38914 ft 442 kts 353°
2026-04-23 08:50 -8.22241 45.79794 38909 ft 442 kts 353°
2026-04-23 08:51 -8.16115 45.79115 38914 ft 442 kts 353°
2026-04-23 08:51 -8.09989 45.78436 38913 ft 442 kts 353°
2026-04-23 08:52 -8.03905 45.77761 38918 ft 442 kts 353°
2026-04-23 08:52 -7.97789 45.77084 38910 ft 442 kts 353°
2026-04-23 08:53 -7.91672 45.76407 38908 ft 442 kts 353°
2026-04-23 08:53 -7.85626 45.75737 38910 ft 441 kts 353°
2026-04-23 08:54 -7.79557 45.75066 38914 ft 441 kts 353°
2026-04-23 08:54 -7.73640 45.74411 38911 ft 441 kts 353°
2026-04-23 08:55 -7.67631 45.73746 38907 ft 441 kts 353°
2026-04-23 08:55 -7.61530 45.73072 38905 ft 441 kts 353°
2026-04-23 08:56 -7.55474 45.72402 38904 ft 440 kts 353°
2026-04-23 08:56 -7.49416 45.71733 38911 ft 439 kts 353°
2026-04-23 08:57 -7.43448 45.71074 38914 ft 439 kts 352°
2026-04-23 08:57 -7.37414 45.70407 38900 ft 438 kts 353°
2026-04-23 08:58 -7.31349 45.69737 38897 ft 438 kts 353°
2026-04-23 08:58 -7.25299 45.69070 38908 ft 437 kts 352°
2026-04-23 08:59 -7.19253 45.68402 38911 ft 436 kts 352°
2026-04-23 08:59 -7.14230 45.67848 38898 ft 436 kts 353°
2026-04-23 09:00 -7.08224 45.67185 38898 ft 435 kts 353°
2026-04-23 09:00 -7.02206 45.66522 38904 ft 435 kts 352°
2026-04-23 09:01 -6.96189 45.65859 38913 ft 435 kts 352°
2026-04-23 09:01 -6.90169 45.65195 38901 ft 435 kts 352°
2026-04-23 09:02 -6.84142 45.64531 38899 ft 435 kts 352°
2026-04-23 09:02 -6.78113 45.63867 38911 ft 435 kts 352°
2026-04-23 09:03 -6.72126 45.63207 38916 ft 436 kts 352°
2026-04-23 09:03 -6.66085 45.62542 38906 ft 436 kts 352°
2026-04-23 09:04 -6.60044 45.61877 38890 ft 437 kts 352°
2026-04-23 09:04 -6.53989 45.61210 38898 ft 437 kts 352°
2026-04-23 09:05 -6.47969 45.60548 38907 ft 437 kts 352°
2026-04-23 09:05 -6.41900 45.59881 38890 ft 438 kts 352°
2026-04-23 09:06 -6.35877 45.59218 38899 ft 438 kts 352°
2026-04-23 09:06 -6.29822 45.58552 38900 ft 438 kts 352°
2026-04-23 09:07 -6.23756 45.57886 38896 ft 437 kts 352°
2026-04-23 09:07 -6.17704 45.57221 38900 ft 437 kts 352°
2026-04-23 09:08 -6.11659 45.56557 38891 ft 436 kts 352°
2026-04-23 09:08 -6.05661 45.55898 38894 ft 436 kts 352°
2026-04-23 09:09 -5.99628 45.55235 38893 ft 435 kts 352°
2026-04-23 09:09 -5.93601 45.54573 38894 ft 435 kts 352°
2026-04-23 09:10 -5.84582 45.53583 38893 ft 434 kts 352°
2026-04-23 09:11 -5.78565 45.52923 38895 ft 434 kts 352°
2026-04-23 09:11 -5.72597 45.52268 38895 ft 434 kts 352°
2026-04-23 09:12 -5.66583 45.51608 38896 ft 434 kts 352°
2026-04-23 09:12 -5.60577 45.50950 38904 ft 434 kts 352°
2026-04-23 09:13 -5.54692 45.50304 38901 ft 435 kts 352°
2026-04-23 09:13 -5.48676 45.49645 38891 ft 435 kts 352°
2026-04-23 09:14 -5.42654 45.48985 38900 ft 435 kts 352°
2026-04-23 09:14 -5.36619 45.48323 38894 ft 436 kts 351°
2026-04-23 09:15 -5.30627 45.47667 38900 ft 436 kts 351°
2026-04-23 09:15 -5.24576 45.47004 38899 ft 436 kts 351°
2026-04-23 09:16 -5.18562 45.46345 38894 ft 437 kts 351°
2026-04-23 09:16 -5.12552 45.45687 38890 ft 437 kts 351°
2026-04-23 09:17 -5.06508 45.45026 38887 ft 437 kts 351°
2026-04-23 09:17 -5.00470 45.44365 38884 ft 437 kts 351°
2026-04-23 09:18 -4.94414 45.43702 38889 ft 437 kts 351°
2026-04-23 09:18 -4.88366 45.43040 38883 ft 437 kts 352°
2026-04-23 09:19 -4.82349 45.42382 38890 ft 436 kts 352°
2026-04-23 09:19 -4.76317 45.41722 38898 ft 436 kts 352°
2026-04-23 09:20 -4.70316 45.41066 38885 ft 436 kts 352°
2026-04-23 09:20 -4.64285 45.40407 38889 ft 435 kts 352°
2026-04-23 09:21 -4.58253 45.39747 38888 ft 435 kts 351°
2026-04-23 09:21 -4.52234 45.39090 38883 ft 434 kts 351°
2026-04-23 09:22 -4.46341 45.38446 38891 ft 434 kts 351°
2026-04-23 09:22 -4.40332 45.37789 38885 ft 434 kts 351°
2026-04-23 09:23 -4.34321 45.37132 38888 ft 433 kts 351°
2026-04-23 09:23 -4.28329 45.36478 38887 ft 433 kts 351°
2026-04-23 09:24 -4.22372 45.35827 38890 ft 433 kts 351°
2026-04-23 09:24 -4.16386 45.35174 38881 ft 432 kts 351°
2026-04-23 09:25 -4.10398 45.34520 38887 ft 432 kts 351°
2026-04-23 09:25 -4.04448 45.33870 38880 ft 432 kts 352°
2026-04-23 09:26 -3.98480 45.33219 38880 ft 432 kts 352°
2026-04-23 09:26 -3.92500 45.32566 38882 ft 432 kts 352°
2026-04-23 09:27 -3.86514 45.31913 38880 ft 432 kts 352°
2026-04-23 09:27 -3.80523 45.31259 38881 ft 433 kts 352°
2026-04-23 09:28 -3.74553 45.30608 38873 ft 434 kts 352°
2026-04-23 09:28 -3.68524 45.29950 38888 ft 436 kts 352°
2026-04-23 09:29 -3.62471 45.29290 38894 ft 438 kts 352°
2026-04-23 09:29 -3.56384 45.28626 38889 ft 441 kts 352°
2026-04-23 09:30 -3.50307 45.27964 38884 ft 443 kts 352°
2026-04-23 09:30 -3.44164 45.27294 38888 ft 445 kts 352°
2026-04-23 09:31 -3.38001 45.26622 38887 ft 446 kts 352°
2026-04-23 09:31 -3.31847 45.25952 38882 ft 447 kts 352°
2026-04-23 09:32 -3.25654 45.25277 38881 ft 447 kts 352°
2026-04-23 09:32 -3.19460 45.24603 38883 ft 446 kts 352°
2026-04-23 09:33 -3.13295 45.23931 38877 ft 445 kts 352°
2026-04-23 09:33 -3.07177 45.23265 38880 ft 443 kts 352°
2026-04-23 09:34 -3.01046 45.22597 38878 ft 442 kts 352°
2026-04-23 09:34 -2.94928 45.21931 38876 ft 440 kts 352°
2026-04-23 09:35 -2.88876 45.21272 38881 ft 439 kts 352°
2026-04-23 09:35 -2.82803 45.20611 38878 ft 439 kts 352°
2026-04-23 09:36 -2.76732 45.19950 38879 ft 438 kts 352°
2026-04-23 09:36 -2.70672 45.19290 38883 ft 438 kts 352°
2026-04-23 09:37 -2.64606 45.18629 38878 ft 438 kts 351°
2026-04-23 09:37 -2.58543 45.17969 38877 ft 438 kts 351°
2026-04-23 09:38 -2.52509 45.17313 38879 ft 439 kts 352°
2026-04-23 09:38 -2.46427 45.16651 38876 ft 439 kts 352°
2026-04-23 09:39 -2.40338 45.15988 38877 ft 440 kts 352°
2026-04-23 09:39 -2.34242 45.15325 38877 ft 440 kts 352°
2026-04-23 09:40 -2.28141 45.14661 38877 ft 441 kts 352°
2026-04-23 09:40 -2.22081 45.14002 38880 ft 441 kts 352°
2026-04-23 09:41 -2.15977 45.13338 38879 ft 441 kts 352°
2026-04-23 09:41 -2.09868 45.12674 38882 ft 441 kts 352°
2026-04-23 09:42 -2.03765 45.12010 38874 ft 440 kts 352°
2026-04-23 09:42 -1.97715 45.11353 38875 ft 439 kts 352°
2026-04-23 09:43 -1.91645 45.10693 38875 ft 438 kts 352°
2026-04-23 09:43 -1.85586 45.10034 38889 ft 437 kts 352°
2026-04-23 09:44 -1.79553 45.09378 38877 ft 435 kts 352°
2026-04-23 09:44 -1.73534 45.08724 38874 ft 434 kts 352°
2026-04-23 09:45 -1.67535 45.08072 38879 ft 432 kts 352°
2026-04-23 09:45 -1.61560 45.07422 38876 ft 431 kts 352°
2026-04-23 09:46 -1.55640 45.06778 38875 ft 430 kts 352°
2026-04-23 09:46 -1.49697 45.06132 38876 ft 430 kts 352°
2026-04-23 09:47 -1.43742 45.05485 38876 ft 429 kts 352°
2026-04-23 09:47 -1.37797 45.04839 38877 ft 429 kts 352°
2026-04-23 09:48 -1.31856 45.04193 38876 ft 429 kts 352°
2026-04-23 09:48 -1.25944 45.03550 38874 ft 430 kts 352°
2026-04-23 09:49 -1.20043 45.02874 38869 ft 430 kts 347°
2026-04-23 09:49 -1.14429 45.00958 38871 ft 426 kts 330°
2026-04-23 09:50 -1.09353 44.97872 38873 ft 426 kts 327°
2026-04-23 09:50 -1.05173 44.95235 38880 ft 427 kts 327°
2026-04-23 09:51 -0.99305 44.91561 38876 ft 428 kts 327°
2026-04-23 09:51 -0.95091 44.88946 38881 ft 428 kts 327°
2026-04-23 09:52 -0.90019 44.85810 38879 ft 429 kts 327°
2026-04-23 09:52 -0.84928 44.82666 38881 ft 429 kts 327°
2026-04-23 09:53 -0.79835 44.79520 38882 ft 429 kts 328°
2026-04-23 09:53 -0.74788 44.76403 38879 ft 429 kts 328°
2026-04-23 09:54 -0.69709 44.73265 38884 ft 429 kts 328°
2026-04-23 09:54 -0.64627 44.70126 38883 ft 429 kts 328°
2026-04-23 09:55 -0.59558 44.66995 38881 ft 428 kts 328°
2026-04-23 09:55 -0.54484 44.63861 38882 ft 427 kts 328°
2026-04-23 09:56 -0.49455 44.60754 38884 ft 427 kts 328°
2026-04-23 09:56 -0.44395 44.57629 38886 ft 427 kts 328°
2026-04-23 09:57 -0.39336 44.54504 38884 ft 427 kts 328°
2026-04-23 09:57 -0.34280 44.51381 38884 ft 427 kts 328°
2026-04-23 09:58 -0.29216 44.48254 38882 ft 427 kts 328°
2026-04-23 09:58 -0.24183 44.45145 38884 ft 428 kts 328°
2026-04-23 09:59 -0.19122 44.42019 38885 ft 428 kts 328°
2026-04-23 09:59 -0.14040 44.38880 38887 ft 429 kts 328°
2026-04-23 10:00 -0.08949 44.35736 38885 ft 429 kts 328°
2026-04-23 10:00 -0.03868 44.32598 38888 ft 429 kts 328°
2026-04-23 10:01 0.01188 44.29475 38888 ft 430 kts 328°
2026-04-23 10:01 0.06291 44.26323 38885 ft 430 kts 328°
2026-04-23 10:02 0.11392 44.23173 38885 ft 431 kts 328°
2026-04-23 10:02 0.16472 44.20035 38886 ft 431 kts 328°
2026-04-23 10:03 0.21569 44.16887 38883 ft 431 kts 328°
2026-04-23 10:03 0.26667 44.13738 38884 ft 431 kts 328°
2026-04-23 10:04 0.31762 44.10592 38886 ft 430 kts 328°
2026-04-23 10:04 0.36864 44.07440 38885 ft 430 kts 328°
2026-04-23 10:05 0.41917 44.04319 38886 ft 430 kts 328°
2026-04-23 10:05 0.47004 44.01177 38885 ft 429 kts 328°
2026-04-23 10:06 0.52086 43.98038 38880 ft 429 kts 328°
2026-04-23 10:06 0.57156 43.94906 38881 ft 428 kts 328°
2026-04-23 10:07 0.62191 43.91796 38881 ft 428 kts 328°
2026-04-23 10:07 0.67254 43.88668 38882 ft 428 kts 328°
2026-04-23 10:08 0.72323 43.85537 38886 ft 428 kts 328°
2026-04-23 10:08 0.77396 43.82404 38883 ft 428 kts 328°
2026-04-23 10:09 0.85008 43.77701 38878 ft 429 kts 328°
2026-04-23 10:09 0.90059 43.74581 38880 ft 429 kts 328°
2026-04-23 10:10 0.95144 43.71439 38883 ft 429 kts 328°
2026-04-23 10:10 1.00227 43.68298 38879 ft 430 kts 328°
2026-04-23 10:11 1.05286 43.65173 38878 ft 430 kts 328°
2026-04-23 10:11 1.10378 43.62026 38869 ft 430 kts 328°
2026-04-23 10:12 1.15483 43.58872 38859 ft 431 kts 328°
2026-04-23 10:12 1.20588 43.55717 38866 ft 432 kts 328°
2026-04-23 10:13 1.25705 43.52555 38870 ft 432 kts 328°
2026-04-23 10:13 1.30832 43.49387 38860 ft 433 kts 328°
2026-04-23 10:14 1.35937 43.46232 38865 ft 433 kts 328°
2026-04-23 10:14 1.41067 43.43061 38867 ft 434 kts 328°
2026-04-23 10:15 1.46207 43.39884 38866 ft 434 kts 328°
2026-04-23 10:15 1.51340 43.36711 38866 ft 434 kts 328°
2026-04-23 10:16 1.56467 43.33542 38868 ft 433 kts 327°
2026-04-23 10:16 1.61601 43.30368 38861 ft 433 kts 328°
2026-04-23 10:17 1.66727 43.27199 38868 ft 433 kts 328°
2026-04-23 10:17 1.71820 43.24050 38865 ft 433 kts 328°
2026-04-23 10:18 1.76937 43.20887 38861 ft 432 kts 327°
2026-04-23 10:18 1.82055 43.17722 38870 ft 432 kts 327°
2026-04-23 10:19 1.87134 43.14581 38865 ft 432 kts 327°
2026-04-23 10:19 1.92245 43.11420 38871 ft 431 kts 327°
2026-04-23 10:20 1.97352 43.08261 38870 ft 431 kts 327°
2026-04-23 10:20 2.02424 43.05124 38867 ft 431 kts 327°
2026-04-23 10:21 2.07529 43.01967 38875 ft 431 kts 327°
2026-04-23 10:21 2.12639 42.98806 38882 ft 431 kts 327°
2026-04-23 10:22 2.17694 42.95678 38874 ft 431 kts 327°
2026-04-23 10:22 2.22799 42.92520 38874 ft 432 kts 327°
2026-04-23 10:23 2.27911 42.89356 38887 ft 432 kts 327°
2026-04-23 10:23 2.33022 42.86193 38877 ft 432 kts 327°
2026-04-23 10:24 2.38143 42.83024 38882 ft 432 kts 327°
2026-04-23 10:24 2.43259 42.79858 38886 ft 432 kts 327°
2026-04-23 10:25 2.48349 42.76707 38880 ft 433 kts 327°
2026-04-23 10:25 2.53470 42.73537 38890 ft 433 kts 327°
2026-04-23 10:26 2.58609 42.70356 38879 ft 433 kts 327°
2026-04-23 10:26 2.63735 42.67182 38875 ft 433 kts 327°
2026-04-23 10:27 2.68825 42.64030 38883 ft 432 kts 327°
2026-04-23 10:27 2.73945 42.60859 38879 ft 432 kts 327°
2026-04-23 10:28 2.79071 42.57684 38871 ft 432 kts 327°
2026-04-23 10:28 2.84185 42.54517 38872 ft 432 kts 327°
2026-04-23 10:29 2.89263 42.51371 38876 ft 431 kts 327°
2026-04-23 10:29 2.94374 42.48204 38869 ft 432 kts 327°
2026-04-23 10:30 2.99484 42.45038 38873 ft 431 kts 327°
2026-04-23 10:30 3.04557 42.41895 38871 ft 431 kts 327°
2026-04-23 10:31 3.09670 42.38726 38861 ft 432 kts 327°
2026-04-23 10:31 3.14781 42.35558 38863 ft 432 kts 327°
2026-04-23 10:32 3.19885 42.32394 38857 ft 432 kts 327°
2026-04-23 10:32 3.24970 42.29241 38856 ft 433 kts 327°
2026-04-23 10:33 3.30090 42.26067 38856 ft 433 kts 327°
2026-04-23 10:33 3.35217 42.22887 38854 ft 433 kts 327°
2026-04-23 10:34 3.40347 42.19706 38855 ft 433 kts 327°
2026-04-23 10:34 3.45475 42.16525 38863 ft 434 kts 327°
2026-04-23 10:35 3.50578 42.13359 38858 ft 434 kts 327°
2026-04-23 10:35 3.55715 42.10172 38859 ft 435 kts 327°
2026-04-23 10:36 3.60856 42.06982 38863 ft 435 kts 327°
2026-04-23 10:36 3.66001 42.03788 38851 ft 435 kts 327°
2026-04-23 10:37 3.71155 42.00589 38859 ft 435 kts 327°
2026-04-23 10:37 3.76302 41.97394 38859 ft 435 kts 327°
2026-04-23 10:38 3.81453 41.94195 38853 ft 435 kts 327°
2026-04-23 10:38 3.86567 41.91019 38853 ft 435 kts 327°
2026-04-23 10:39 3.91704 41.87828 38855 ft 434 kts 327°
2026-04-23 10:39 3.96877 41.84681 38854 ft 434 kts 329°
2026-04-23 10:40 4.02146 41.81720 38860 ft 433 kts 330°
2026-04-23 10:40 4.07381 41.78811 38858 ft 433 kts 329°
2026-04-23 10:41 4.12644 41.75860 38857 ft 432 kts 329°
2026-04-23 10:41 4.17885 41.72903 38860 ft 431 kts 329°
2026-04-23 10:42 4.23080 41.69965 38856 ft 431 kts 329°
2026-04-23 10:42 4.28303 41.67009 38858 ft 430 kts 329°
2026-04-23 10:43 4.32642 41.64553 38864 ft 430 kts 329°
2026-04-23 10:43 4.37855 41.61603 38862 ft 430 kts 329°
2026-04-23 10:44 4.43068 41.58652 38874 ft 432 kts 329°
2026-04-23 10:44 4.45695 41.57165 38989 ft 434 kts 329°
2026-04-23 10:44 4.48325 41.55676 39148 ft 435 kts 329°
2026-04-23 10:45 4.50933 41.54199 39406 ft 433 kts 329°
2026-04-23 10:45 4.53555 41.52715 39609 ft 433 kts 329°
2026-04-23 10:45 4.56183 41.51227 39773 ft 433 kts 329°
2026-04-23 10:45 4.58820 41.49734 39858 ft 436 kts 329°
2026-04-23 10:46 4.64132 41.46725 39870 ft 438 kts 329°
2026-04-23 10:46 4.69432 41.43723 39864 ft 436 kts 329°
2026-04-23 10:47 4.74664 41.40759 39874 ft 434 kts 329°
2026-04-23 10:47 4.79917 41.37783 39873 ft 432 kts 329°
2026-04-23 10:48 4.85142 41.34821 39865 ft 431 kts 329°
2026-04-23 10:48 4.90336 41.31877 39868 ft 430 kts 329°
2026-04-23 10:49 4.95545 41.28923 39869 ft 430 kts 329°
2026-04-23 10:49 5.00773 41.25959 39875 ft 431 kts 329°
2026-04-23 10:50 5.05975 41.23007 39869 ft 432 kts 329°
2026-04-23 10:50 5.11227 41.20028 39867 ft 434 kts 329°
2026-04-23 10:51 5.16496 41.17039 39872 ft 435 kts 329°
2026-04-23 10:51 5.21748 41.14058 39868 ft 437 kts 329°
2026-04-23 10:52 5.27050 41.11049 39867 ft 438 kts 329°
2026-04-23 10:52 5.32361 41.08033 39866 ft 438 kts 329°
2026-04-23 10:53 5.37679 41.05014 39865 ft 439 kts 329°
2026-04-23 10:53 5.42958 41.02016 39859 ft 439 kts 329°
2026-04-23 10:54 5.48271 40.98998 39857 ft 439 kts 329°
2026-04-23 10:54 5.53593 40.95974 39850 ft 438 kts 329°
2026-04-23 10:55 5.58894 40.92961 39851 ft 437 kts 329°
2026-04-23 10:55 5.64156 40.89970 39863 ft 436 kts 330°
2026-04-23 10:56 5.69449 40.86961 39851 ft 436 kts 330°
2026-04-23 10:56 5.74717 40.83965 39849 ft 434 kts 330°
2026-04-23 10:57 5.79965 40.80980 39855 ft 433 kts 329°
2026-04-23 10:57 5.85197 40.78004 39848 ft 431 kts 329°
2026-04-23 10:58 5.90389 40.75049 39851 ft 430 kts 329°
2026-04-23 10:58 5.95561 40.72105 39850 ft 429 kts 329°
2026-04-23 10:59 6.00749 40.69152 39852 ft 428 kts 329°
2026-04-23 10:59 6.05938 40.66197 39851 ft 428 kts 329°
2026-04-23 11:00 6.11131 40.63240 39855 ft 428 kts 329°
2026-04-23 11:00 6.16280 40.60307 39854 ft 428 kts 329°
2026-04-23 11:01 6.21467 40.57351 39852 ft 429 kts 329°
2026-04-23 11:01 6.26673 40.54384 39853 ft 429 kts 329°
2026-04-23 11:02 6.31874 40.51419 39852 ft 430 kts 329°
2026-04-23 11:02 6.37079 40.48451 39863 ft 431 kts 329°
2026-04-23 11:03 6.42273 40.45489 39855 ft 432 kts 329°
2026-04-23 11:03 6.47505 40.42505 39854 ft 432 kts 329°
2026-04-23 11:04 6.52752 40.39511 39863 ft 433 kts 329°
2026-04-23 11:04 6.57995 40.36518 39866 ft 433 kts 329°
2026-04-23 11:05 6.63207 40.33543 39886 ft 433 kts 329°
2026-04-23 11:05 6.68445 40.30552 39889 ft 432 kts 329°
2026-04-23 11:06 6.76280 40.26077 39918 ft 431 kts 329°
2026-04-23 11:07 6.81469 40.23112 39917 ft 430 kts 329°
2026-04-23 11:07 6.86671 40.20139 39958 ft 429 kts 329°
2026-04-23 11:08 6.91861 40.17172 39962 ft 429 kts 329°
2026-04-23 11:08 6.97063 40.14198 39963 ft 428 kts 329°
2026-04-23 11:09 7.02244 40.11234 39992 ft 428 kts 329°
2026-04-23 11:09 7.07400 40.08284 39988 ft 428 kts 329°
2026-04-23 11:10 7.12585 40.05317 39968 ft 427 kts 329°
2026-04-23 11:10 7.17756 40.02357 39977 ft 427 kts 329°
2026-04-23 11:11 7.22889 39.99419 39946 ft 427 kts 329°
2026-04-23 11:11 7.28055 39.96460 39947 ft 427 kts 329°
2026-04-23 11:12 7.33226 39.93498 39945 ft 427 kts 329°
2026-04-23 11:12 7.38403 39.90532 39922 ft 427 kts 329°
2026-04-23 11:13 7.43540 39.87587 39927 ft 427 kts 329°
2026-04-23 11:13 7.48722 39.84616 39913 ft 428 kts 329°
2026-04-23 11:14 7.53901 39.81646 39916 ft 428 kts 329°
2026-04-23 11:14 7.59068 39.78682 39925 ft 428 kts 329°
2026-04-23 11:15 7.64249 39.75710 39937 ft 428 kts 328°
2026-04-23 11:15 7.69391 39.72758 39936 ft 428 kts 328°
2026-04-23 11:16 7.74576 39.69781 39946 ft 428 kts 328°
2026-04-23 11:16 7.79756 39.66806 39961 ft 428 kts 328°
2026-04-23 11:17 7.84936 39.63831 39970 ft 427 kts 328°
2026-04-23 11:17 7.90107 39.60860 39975 ft 427 kts 328°
2026-04-23 11:18 7.95263 39.57896 39966 ft 426 kts 328°
2026-04-23 11:18 8.00417 39.54933 39962 ft 425 kts 328°
2026-04-23 11:19 8.05530 39.51992 39965 ft 425 kts 328°
2026-04-23 11:19 8.10666 39.49037 39945 ft 424 kts 328°
2026-04-23 11:20 8.15799 39.46084 39930 ft 424 kts 328°
2026-04-23 11:20 8.20926 39.43132 39906 ft 424 kts 328°
2026-04-23 11:21 8.26022 39.40198 39902 ft 424 kts 328°
2026-04-23 11:21 8.31153 39.37243 39876 ft 424 kts 328°
2026-04-23 11:22 8.36279 39.34289 39867 ft 423 kts 328°
2026-04-23 11:22 8.41402 39.31337 39863 ft 423 kts 328°
2026-04-23 11:23 8.46488 39.28404 39858 ft 423 kts 328°
2026-04-23 11:23 8.51607 39.25453 39860 ft 423 kts 328°
2026-04-23 11:24 8.56719 39.22504 39854 ft 423 kts 328°
2026-04-23 11:24 8.61829 39.19555 39879 ft 423 kts 328°
2026-04-23 11:25 8.66939 39.16605 39876 ft 423 kts 328°
2026-04-23 11:25 8.72050 39.13654 39878 ft 423 kts 328°
2026-04-23 11:26 8.77168 39.10698 39875 ft 423 kts 328°
2026-04-23 11:26 8.82248 39.07763 39959 ft 423 kts 328°
2026-04-23 11:27 8.87363 39.04807 40040 ft 423 kts 328°
2026-04-23 11:27 8.92487 39.01844 40102 ft 423 kts 328°
2026-04-23 11:28 8.97590 38.98893 40163 ft 423 kts 328°
2026-04-23 11:28 9.02695 38.95940 40193 ft 423 kts 328°
2026-04-23 11:29 9.07802 38.92984 40199 ft 422 kts 328°
2026-04-23 11:29 9.12872 38.90049 40172 ft 422 kts 328°
2026-04-23 11:29 9.15424 38.88571 39948 ft 422 kts 328°
2026-04-23 11:30 9.17970 38.87097 39948 ft 422 kts 328°
2026-04-23 11:30 9.23062 38.84147 39956 ft 422 kts 328°
2026-04-23 11:31 9.28168 38.81188 39954 ft 422 kts 328°
2026-04-23 11:31 9.33245 38.78245 39947 ft 423 kts 328°
2026-04-23 11:32 9.38362 38.75277 39950 ft 424 kts 328°
2026-04-23 11:32 9.43485 38.72306 39946 ft 424 kts 328°
2026-04-23 11:33 9.48580 38.69350 39947 ft 424 kts 328°
2026-04-23 11:33 9.53700 38.66377 39941 ft 424 kts 328°
2026-04-23 11:34 9.57972 38.63897 39917 ft 424 kts 328°
2026-04-23 11:34 9.63096 38.60920 39910 ft 424 kts 328°
2026-04-23 11:35 9.68226 38.57940 39908 ft 425 kts 328°
2026-04-23 11:35 9.73330 38.54973 39891 ft 425 kts 328°
2026-04-23 11:36 9.78466 38.51986 39882 ft 425 kts 328°
2026-04-23 11:36 9.83599 38.49001 39873 ft 425 kts 328°
2026-04-23 11:37 9.88703 38.46031 39871 ft 426 kts 328°
2026-04-23 11:37 9.93837 38.43042 39872 ft 425 kts 328°
2026-04-23 11:38 9.98948 38.40066 39853 ft 424 kts 328°
2026-04-23 11:38 10.04056 38.37091 39862 ft 423 kts 328°
2026-04-23 11:39 10.09161 38.34116 39846 ft 422 kts 328°
2026-04-23 11:39 10.14251 38.31148 39833 ft 422 kts 328°
2026-04-23 11:40 10.19333 38.28184 39846 ft 421 kts 328°
2026-04-23 11:40 10.24415 38.25220 39837 ft 420 kts 328°
2026-04-23 11:41 10.29439 38.22288 39835 ft 419 kts 328°
2026-04-23 11:41 10.34488 38.19340 39849 ft 419 kts 328°
2026-04-23 11:42 10.39551 38.16382 39876 ft 420 kts 328°
2026-04-23 11:42 10.44636 38.13411 39882 ft 421 kts 328°
2026-04-23 11:43 10.49729 38.10434 39900 ft 423 kts 328°
2026-04-23 11:43 10.54820 38.07457 39912 ft 425 kts 328°
2026-04-23 11:44 10.59955 38.04454 39921 ft 426 kts 328°
2026-04-23 11:44 10.65092 38.01448 39914 ft 426 kts 328°
2026-04-23 11:45 10.70234 37.98438 39940 ft 426 kts 328°
2026-04-23 11:45 10.75342 37.95447 39933 ft 426 kts 328°
2026-04-23 11:46 10.80486 37.92433 39926 ft 426 kts 327°
2026-04-23 11:46 10.85622 37.89424 39926 ft 425 kts 327°
2026-04-23 11:47 10.90744 37.86420 39921 ft 425 kts 327°
2026-04-23 11:47 10.95867 37.83415 39926 ft 424 kts 327°
2026-04-23 11:48 11.00981 37.80414 39911 ft 424 kts 327°
2026-04-23 11:48 11.06086 37.77417 39909 ft 423 kts 327°
2026-04-23 11:49 11.11151 37.74443 39888 ft 423 kts 327°
2026-04-23 11:49 11.16246 37.71450 39898 ft 422 kts 327°
2026-04-23 11:50 11.21331 37.68461 39893 ft 421 kts 327°
2026-04-23 11:50 11.26409 37.65475 39875 ft 421 kts 327°
2026-04-23 11:51 11.31477 37.62494 39876 ft 421 kts 327°
2026-04-23 11:51 11.36516 37.59528 39873 ft 420 kts 327°
2026-04-23 11:52 11.41586 37.56543 39876 ft 420 kts 327°
2026-04-23 11:52 11.46658 37.53556 39874 ft 420 kts 327°
2026-04-23 11:53 11.51698 37.50586 39860 ft 420 kts 327°
2026-04-23 11:53 11.56770 37.47597 39868 ft 420 kts 327°
2026-04-23 11:54 11.61828 37.44614 39860 ft 420 kts 327°
2026-04-23 11:54 11.66891 37.41627 39853 ft 420 kts 327°
2026-04-23 11:55 11.71924 37.38656 39866 ft 420 kts 327°
2026-04-23 11:55 11.76987 37.35667 39863 ft 420 kts 327°
2026-04-23 11:56 11.82064 37.32668 39858 ft 421 kts 327°
2026-04-23 11:56 11.87133 37.29672 39863 ft 421 kts 327°
2026-04-23 11:57 11.92204 37.26674 39866 ft 421 kts 327°
2026-04-23 11:57 11.97278 37.23673 39862 ft 422 kts 327°
2026-04-23 11:58 12.02360 37.20665 39866 ft 422 kts 327°
2026-04-23 11:58 12.07414 37.17673 39874 ft 422 kts 327°
2026-04-23 11:59 12.12495 37.14664 39863 ft 421 kts 327°
2026-04-23 11:59 12.17574 37.11655 39872 ft 421 kts 327°
2026-04-23 12:00 12.22645 37.08648 39868 ft 421 kts 327°
2026-04-23 12:00 12.27684 37.05660 39865 ft 421 kts 327°
2026-04-23 12:01 12.32751 37.02654 39861 ft 420 kts 327°
2026-04-23 12:01 12.37819 36.99645 39852 ft 421 kts 327°
2026-04-23 12:02 12.42891 36.96633 39850 ft 421 kts 327°
2026-04-23 12:02 12.47968 36.93617 39832 ft 421 kts 327°
2026-04-23 12:03 12.53008 36.90620 39808 ft 421 kts 327°
2026-04-23 12:03 12.58086 36.87601 39807 ft 422 kts 327°
2026-04-23 12:04 12.63166 36.84578 39803 ft 422 kts 326°
2026-04-23 12:04 12.68246 36.81554 39788 ft 423 kts 326°
2026-04-23 12:05 12.73306 36.78541 39773 ft 423 kts 326°
2026-04-23 12:05 12.78392 36.75511 39756 ft 423 kts 326°
2026-04-23 12:06 12.83490 36.72473 39751 ft 423 kts 326°
2026-04-23 12:06 12.91077 36.67948 39752 ft 422 kts 326°
2026-04-23 12:07 12.96156 36.64917 39742 ft 422 kts 326°
2026-04-23 12:07 13.01231 36.61886 39752 ft 422 kts 326°
2026-04-23 12:08 13.06315 36.58849 39722 ft 422 kts 326°
2026-04-23 12:08 13.11371 36.55827 39731 ft 422 kts 326°
2026-04-23 12:09 13.16452 36.52789 39716 ft 423 kts 326°
2026-04-23 12:09 13.21543 36.49744 39720 ft 422 kts 326°
2026-04-23 12:10 13.26627 36.46701 39727 ft 422 kts 326°
2026-04-23 12:10 13.31568 36.43742 39702 ft 422 kts 325°
2026-04-23 12:11 13.36643 36.40701 39701 ft 422 kts 325°
2026-04-23 12:11 13.41722 36.37657 39690 ft 422 kts 325°
2026-04-23 12:12 13.46806 36.34608 39705 ft 422 kts 325°
2026-04-23 12:12 13.51878 36.31565 39692 ft 422 kts 325°
2026-04-23 12:13 13.56924 36.28535 39680 ft 423 kts 325°
2026-04-23 12:13 13.62000 36.25485 39690 ft 422 kts 325°
2026-04-23 12:14 13.67111 36.22485 39679 ft 425 kts 329°
2026-04-23 12:14 13.72580 36.20066 39681 ft 428 kts 333°
2026-04-23 12:15 13.78078 36.17792 39684 ft 428 kts 333°
2026-04-23 12:15 13.83598 36.15482 39679 ft 428 kts 333°
2026-04-23 12:16 13.89107 36.13140 39679 ft 428 kts 332°
2026-04-23 12:16 13.94617 36.10781 39683 ft 428 kts 332°
2026-04-23 12:17 14.00118 36.08421 39677 ft 428 kts 332°
2026-04-23 12:17 14.05617 36.06060 39680 ft 428 kts 332°
2026-04-23 12:18 14.11119 36.03698 39679 ft 428 kts 332°
2026-04-23 12:18 14.16584 36.01350 39682 ft 427 kts 332°
2026-04-23 12:19 14.22076 35.98990 39674 ft 427 kts 332°
2026-04-23 12:19 14.27565 35.96630 39680 ft 427 kts 331°
2026-04-23 12:20 14.33047 35.94271 39679 ft 426 kts 331°
2026-04-23 12:20 14.38491 35.91927 39681 ft 425 kts 331°
2026-04-23 12:21 14.43951 35.89576 39681 ft 425 kts 331°
2026-04-23 12:21 14.48492 35.87619 39679 ft 425 kts 331°
2026-04-23 12:22 14.53946 35.85268 39685 ft 424 kts 331°
2026-04-23 12:22 14.59393 35.82918 39686 ft 424 kts 331°
2026-04-23 12:23 14.64830 35.80571 39684 ft 423 kts 331°
2026-04-23 12:23 14.70223 35.78243 39687 ft 423 kts 331°
2026-04-23 12:24 14.75651 35.75897 39686 ft 422 kts 331°
2026-04-23 12:24 14.81075 35.73553 39685 ft 422 kts 331°
2026-04-23 12:25 14.86491 35.71210 39689 ft 422 kts 331°
2026-04-23 12:25 14.91883 35.68876 39687 ft 422 kts 330°
2026-04-23 12:26 14.97307 35.66527 39687 ft 422 kts 331°
2026-04-23 12:26 15.02738 35.64175 39688 ft 423 kts 331°
2026-04-23 12:27 15.08170 35.61819 39690 ft 423 kts 331°
2026-04-23 12:27 15.13606 35.59462 39687 ft 424 kts 331°
2026-04-23 12:28 15.19029 35.57109 39697 ft 424 kts 330°
2026-04-23 12:28 15.24479 35.54742 39690 ft 424 kts 330°
2026-04-23 12:29 15.29931 35.52374 39692 ft 424 kts 330°
2026-04-23 12:29 15.35333 35.50026 39693 ft 423 kts 330°
2026-04-23 12:30 15.40758 35.47667 39692 ft 422 kts 330°
2026-04-23 12:30 15.46179 35.45308 39695 ft 422 kts 330°
2026-04-23 12:31 15.51599 35.42948 39704 ft 421 kts 330°
2026-04-23 12:31 15.56971 35.40608 39693 ft 421 kts 330°
2026-04-23 12:32 15.62374 35.38252 39694 ft 420 kts 330°
2026-04-23 12:32 15.67755 35.35905 39697 ft 419 kts 330°
2026-04-23 12:33 15.73096 35.33574 39696 ft 418 kts 330°
2026-04-23 12:33 15.78464 35.31230 39698 ft 418 kts 330°
2026-04-23 12:34 15.83820 35.28890 39703 ft 417 kts 329°
2026-04-23 12:34 15.89183 35.26545 39697 ft 417 kts 329°
2026-04-23 12:35 15.94527 35.24207 39709 ft 416 kts 329°
2026-04-23 12:35 15.99831 35.21886 39700 ft 416 kts 329°
2026-04-23 12:36 16.05177 35.19544 39703 ft 416 kts 329°
2026-04-23 12:36 16.10514 35.17206 39703 ft 416 kts 329°
2026-04-23 12:37 16.15814 35.14882 39708 ft 416 kts 329°
2026-04-23 12:37 16.21150 35.12541 39703 ft 416 kts 329°
2026-04-23 12:38 16.26489 35.10197 39703 ft 415 kts 329°
2026-04-23 12:38 16.31791 35.07868 39704 ft 415 kts 329°
2026-04-23 12:39 16.37124 35.05524 39701 ft 415 kts 329°
2026-04-23 12:39 16.42426 35.03193 39706 ft 415 kts 329°
2026-04-23 12:40 16.47751 35.00850 39712 ft 415 kts 329°
2026-04-23 12:40 16.53081 34.98503 39713 ft 415 kts 329°
2026-04-23 12:41 16.58401 34.96160 39708 ft 415 kts 329°
2026-04-23 12:41 16.63729 34.93811 39708 ft 415 kts 329°
2026-04-23 12:42 16.69012 34.91481 39710 ft 414 kts 329°
2026-04-23 12:42 16.74338 34.89131 39726 ft 414 kts 329°
2026-04-23 12:43 16.79642 34.86788 39715 ft 414 kts 328°
2026-04-23 12:43 16.84913 34.84459 39710 ft 413 kts 328°
2026-04-23 12:44 16.90213 34.82116 39715 ft 413 kts 328°
2026-04-23 12:44 16.95504 34.79775 39713 ft 412 kts 328°
2026-04-23 12:45 17.00783 34.77438 39714 ft 412 kts 328°
2026-04-23 12:45 17.06063 34.75100 39726 ft 411 kts 328°
2026-04-23 12:46 17.11295 34.72780 39729 ft 411 kts 328°
2026-04-23 12:46 17.16561 34.70445 39720 ft 411 kts 328°
2026-04-23 12:47 17.21828 34.68107 39721 ft 411 kts 328°
2026-04-23 12:47 17.27079 34.65776 39726 ft 410 kts 328°
2026-04-23 12:48 17.32345 34.63436 39715 ft 410 kts 328°
2026-04-23 12:48 17.37605 34.61097 39742 ft 410 kts 327°
2026-04-23 12:49 17.42819 34.58777 39731 ft 410 kts 327°
2026-04-23 12:49 17.48080 34.56435 39724 ft 410 kts 327°
2026-04-23 12:50 17.53344 34.54091 39723 ft 410 kts 327°
2026-04-23 12:50 17.58593 34.51751 39722 ft 410 kts 327°
2026-04-23 12:51 17.63810 34.49424 39723 ft 410 kts 327°
2026-04-23 12:51 17.69054 34.47084 39743 ft 410 kts 326°
2026-04-23 12:52 17.74305 34.44739 39734 ft 410 kts 326°
2026-04-23 12:52 17.79561 34.42390 39731 ft 410 kts 326°
2026-04-23 12:53 17.84812 34.40042 39728 ft 410 kts 326°
2026-04-23 12:53 17.90063 34.37693 39729 ft 410 kts 326°
2026-04-23 12:54 17.95284 34.35355 39730 ft 410 kts 326°
2026-04-23 12:54 18.00535 34.33003 39731 ft 410 kts 326°
2026-04-23 12:55 18.05792 34.30646 39733 ft 410 kts 326°
2026-04-23 12:55 18.11050 34.28287 39732 ft 410 kts 326°
2026-04-23 12:56 18.16301 34.25930 39732 ft 410 kts 326°
2026-04-23 12:56 18.21528 34.23582 39733 ft 410 kts 326°
2026-04-23 12:57 18.26796 34.21215 39736 ft 410 kts 326°
2026-04-23 12:57 18.32013 34.18868 39746 ft 411 kts 326°
2026-04-23 12:58 18.37284 34.16495 39736 ft 411 kts 326°
2026-04-23 12:58 18.42552 34.14122 39727 ft 411 kts 326°
2026-04-23 12:59 18.47787 34.11763 39729 ft 411 kts 326°
2026-04-23 12:59 18.53062 34.09385 39738 ft 412 kts 326°
2026-04-23 13:00 18.58333 34.07006 39739 ft 412 kts 326°
2026-04-23 13:00 18.63592 34.04631 39751 ft 412 kts 326°
2026-04-23 13:01 18.68864 34.02248 39738 ft 412 kts 326°
2026-04-23 13:01 18.74143 33.99861 39741 ft 413 kts 326°
2026-04-23 13:02 18.79431 33.97468 39737 ft 413 kts 326°
2026-04-23 13:02 18.84715 33.95076 39745 ft 413 kts 325°
2026-04-23 13:03 18.89972 33.92694 39740 ft 413 kts 325°
2026-04-23 13:03 18.95272 33.90291 39746 ft 414 kts 325°
2026-04-23 13:04 19.00546 33.87897 39745 ft 415 kts 325°
2026-04-23 13:04 19.05850 33.85488 39745 ft 415 kts 325°
2026-04-23 13:05 19.11166 33.83073 39746 ft 415 kts 325°
2026-04-23 13:05 19.16486 33.80654 39745 ft 416 kts 325°
2026-04-23 13:06 19.24436 33.77036 39744 ft 416 kts 325°
2026-04-23 13:07 19.29776 33.74603 39757 ft 417 kts 324°
2026-04-23 13:07 19.35122 33.72167 39746 ft 417 kts 324°
2026-04-23 13:08 19.40457 33.69734 39747 ft 417 kts 324°
2026-04-23 13:08 19.45755 33.67316 39742 ft 417 kts 324°
2026-04-23 13:09 19.51096 33.64876 39747 ft 417 kts 324°
2026-04-23 13:09 19.56437 33.62434 39790 ft 418 kts 324°
2026-04-23 13:10 19.61783 33.59988 39762 ft 419 kts 324°
2026-04-23 13:10 19.67146 33.57532 39755 ft 419 kts 324°
2026-04-23 13:11 19.72474 33.55091 39758 ft 419 kts 324°
2026-04-23 13:11 19.77841 33.52631 39755 ft 420 kts 324°
2026-04-23 13:12 19.83216 33.50165 39755 ft 420 kts 324°
2026-04-23 13:12 19.88582 33.47701 39776 ft 420 kts 323°
2026-04-23 13:13 19.93924 33.45247 39767 ft 421 kts 323°
2026-04-23 13:13 19.99299 33.42775 39759 ft 421 kts 323°
2026-04-23 13:14 20.04681 33.40299 39759 ft 421 kts 323°
2026-04-23 13:14 20.10031 33.37835 39760 ft 421 kts 323°
2026-04-23 13:15 20.14504 33.35774 39766 ft 421 kts 323°
2026-04-23 13:15 20.19890 33.33291 39795 ft 420 kts 323°
2026-04-23 13:16 20.25261 33.30813 39771 ft 420 kts 323°
2026-04-23 13:16 20.30575 33.28359 39766 ft 418 kts 323°
2026-04-23 13:17 20.35912 33.25894 39771 ft 417 kts 323°
2026-04-23 13:17 20.41226 33.23436 39774 ft 415 kts 322°
2026-04-23 13:18 20.46521 33.20985 39775 ft 414 kts 322°
2026-04-23 13:18 20.51771 33.18552 39788 ft 413 kts 322°
2026-04-23 13:19 20.57049 33.16105 39775 ft 412 kts 322°
2026-04-23 13:19 20.62274 33.13680 39785 ft 412 kts 322°
2026-04-23 13:20 20.67534 33.11238 39782 ft 411 kts 322°
2026-04-23 13:20 20.72778 33.08800 39791 ft 411 kts 322°
2026-04-23 13:21 20.78036 33.06354 39788 ft 412 kts 322°
2026-04-23 13:21 20.83306 33.03899 39800 ft 414 kts 322°
2026-04-23 13:22 20.88577 33.01443 39796 ft 416 kts 322°
2026-04-23 13:22 20.93896 32.98965 39792 ft 417 kts 322°
2026-04-23 13:23 20.99223 32.96481 39790 ft 418 kts 322°
2026-04-23 13:23 21.04528 32.94005 39794 ft 419 kts 322°
2026-04-23 13:24 21.09869 32.91511 39795 ft 419 kts 322°
2026-04-23 13:24 21.15218 32.89011 39799 ft 419 kts 322°
2026-04-23 13:25 21.20577 32.86503 39806 ft 419 kts 322°
2026-04-23 13:25 21.25903 32.84009 39794 ft 419 kts 322°
2026-04-23 13:26 21.31246 32.81507 39806 ft 419 kts 322°
2026-04-23 13:26 21.36560 32.79015 39804 ft 418 kts 322°
2026-04-23 13:27 21.41921 32.76498 39821 ft 418 kts 322°
2026-04-23 13:27 21.47255 32.73991 39821 ft 419 kts 322°
2026-04-23 13:28 21.52565 32.71494 39806 ft 419 kts 322°
2026-04-23 13:28 21.57910 32.68980 39810 ft 418 kts 322°
2026-04-23 13:29 21.63237 32.66472 39812 ft 418 kts 322°
2026-04-23 13:29 21.68532 32.63976 39813 ft 417 kts 322°
2026-04-23 13:30 21.73849 32.61468 39868 ft 417 kts 322°
2026-04-23 13:30 21.79176 32.58952 39830 ft 418 kts 322°
2026-04-23 13:31 21.84508 32.56433 39822 ft 418 kts 322°
2026-04-23 13:31 21.89802 32.53930 39818 ft 417 kts 322°
2026-04-23 13:32 21.95126 32.51410 39818 ft 417 kts 322°
2026-04-23 13:32 22.00408 32.48910 39828 ft 417 kts 323°
2026-04-23 13:33 22.05823 32.46549 39860 ft 421 kts 325°
2026-04-23 13:33 22.11310 32.44275 39837 ft 422 kts 325°
2026-04-23 13:34 22.16795 32.41990 39822 ft 422 kts 325°
2026-04-23 13:34 22.22236 32.39702 39829 ft 421 kts 325°
2026-04-23 13:35 22.27700 32.37389 39826 ft 421 kts 325°
2026-04-23 13:35 22.33140 32.35081 39826 ft 422 kts 325°
2026-04-23 13:36 22.38608 32.32759 39835 ft 423 kts 325°
2026-04-23 13:36 22.44080 32.30433 39829 ft 423 kts 325°
2026-04-23 13:37 22.49567 32.28102 39826 ft 422 kts 325°
2026-04-23 13:37 22.55036 32.25775 39831 ft 422 kts 325°
2026-04-23 13:38 22.60469 32.23462 39827 ft 422 kts 325°
2026-04-23 13:38 22.65938 32.21130 39860 ft 422 kts 325°
2026-04-23 13:39 22.71423 32.18788 39835 ft 423 kts 325°
2026-04-23 13:39 22.76910 32.16445 39831 ft 424 kts 325°
2026-04-23 13:40 22.82383 32.14106 39831 ft 425 kts 325°
2026-04-23 13:40 22.87898 32.11747 39828 ft 426 kts 325°
2026-04-23 13:41 22.93423 32.09382 39826 ft 427 kts 325°
2026-04-23 13:41 22.98959 32.07010 39847 ft 428 kts 325°
2026-04-23 13:42 23.04487 32.04639 39841 ft 429 kts 325°
2026-04-23 13:42 23.10070 32.02243 39834 ft 431 kts 325°
2026-04-23 13:43 23.15655 31.99844 39831 ft 432 kts 325°
2026-04-23 13:43 23.21214 31.97454 39832 ft 432 kts 325°
2026-04-23 13:44 23.26820 31.95042 39857 ft 433 kts 325°
2026-04-23 13:44 23.32437 31.92621 39841 ft 434 kts 325°
2026-04-23 13:45 23.37112 31.90605 39837 ft 435 kts 325°
2026-04-23 13:45 23.43706 31.87760 39830 ft 436 kts 325°
2026-04-23 13:46 23.49314 31.85338 39831 ft 436 kts 325°
2026-04-23 13:46 23.54960 31.82898 39835 ft 435 kts 325°
2026-04-23 13:47 23.60593 31.80460 39836 ft 436 kts 325°
2026-04-23 13:47 23.66224 31.78022 39844 ft 435 kts 325°
2026-04-23 13:48 23.71818 31.75597 39839 ft 435 kts 325°
2026-04-23 13:48 23.77441 31.73157 39836 ft 434 kts 325°
2026-04-23 13:49 23.83050 31.70721 39833 ft 433 kts 325°
2026-04-23 13:49 23.88664 31.68280 39858 ft 433 kts 325°
2026-04-23 13:50 23.94233 31.65856 39847 ft 433 kts 326°
2026-04-23 13:50 23.99834 31.63416 39836 ft 432 kts 325°
2026-04-23 13:51 24.05431 31.60977 39837 ft 432 kts 325°
2026-04-23 13:51 24.11011 31.58541 39836 ft 431 kts 325°
2026-04-23 13:52 24.16553 31.56121 39839 ft 430 kts 325°
2026-04-23 13:52 24.22114 31.53689 39833 ft 430 kts 325°
2026-04-23 13:53 24.27679 31.51253 39855 ft 430 kts 325°
2026-04-23 13:53 24.33238 31.48817 39840 ft 430 kts 325°
2026-04-23 13:54 24.38798 31.46380 39834 ft 430 kts 325°
2026-04-23 13:54 24.44321 31.43956 39837 ft 429 kts 325°
2026-04-23 13:55 24.49861 31.41522 39844 ft 429 kts 326°
2026-04-23 13:55 24.55397 31.39088 39837 ft 428 kts 326°
2026-04-23 13:56 24.60932 31.36652 39839 ft 428 kts 326°
2026-04-23 13:56 24.66458 31.34218 39838 ft 427 kts 325°
2026-04-23 13:57 24.71972 31.31786 39838 ft 427 kts 325°
2026-04-23 13:57 24.77457 31.29365 39876 ft 426 kts 325°
2026-04-23 13:58 24.82976 31.26925 39858 ft 427 kts 325°
2026-04-23 13:58 24.88500 31.24482 39837 ft 427 kts 325°
2026-04-23 13:59 24.94027 31.22035 39840 ft 428 kts 325°
2026-04-23 13:59 24.99522 31.19601 39839 ft 428 kts 325°
2026-04-23 14:00 25.04125 31.17559 39835 ft 428 kts 325°
2026-04-23 14:00 25.10596 31.14686 39850 ft 429 kts 325°
2026-04-23 14:01 25.16113 31.12234 39849 ft 429 kts 325°
2026-04-23 14:01 25.21664 31.09765 39842 ft 430 kts 325°
2026-04-23 14:02 25.27216 31.07293 39839 ft 430 kts 325°
2026-04-23 14:02 25.32766 31.04820 39841 ft 430 kts 325°
2026-04-23 14:03 25.38277 31.02361 39868 ft 429 kts 325°
2026-04-23 14:03 25.43824 30.99884 39848 ft 429 kts 325°
2026-04-23 14:04 25.49359 30.97410 39844 ft 429 kts 325°
2026-04-23 14:04 25.54889 30.94936 39858 ft 428 kts 326°
2026-04-23 14:05 25.59476 30.92882 39839 ft 426 kts 326°
2026-04-23 14:05 25.64972 30.90420 39837 ft 424 kts 325°
2026-04-23 14:06 25.70442 30.87965 39852 ft 423 kts 326°
2026-04-23 14:06 25.75853 30.85535 39842 ft 422 kts 326°
2026-04-23 14:07 25.81287 30.83091 39852 ft 420 kts 326°
2026-04-23 14:07 25.89409 30.79433 39853 ft 419 kts 325°
2026-04-23 14:08 25.94823 30.76992 39870 ft 419 kts 325°
2026-04-23 14:08 26.00238 30.74547 39873 ft 421 kts 326°
2026-04-23 14:09 26.05637 30.72107 39891 ft 422 kts 326°
2026-04-23 14:09 26.11089 30.69641 39890 ft 423 kts 326°
2026-04-23 14:10 26.16551 30.67170 39908 ft 424 kts 326°
2026-04-23 14:10 26.21997 30.64703 39902 ft 425 kts 326°
2026-04-23 14:11 26.27486 30.62214 39944 ft 425 kts 326°
2026-04-23 14:11 26.32980 30.59720 39926 ft 426 kts 326°
2026-04-23 14:12 26.38431 30.57244 39927 ft 425 kts 326°
2026-04-23 14:12 26.43916 30.54750 39929 ft 425 kts 326°
2026-04-23 14:13 26.49323 30.52289 39928 ft 424 kts 326°
2026-04-23 14:13 26.54780 30.49802 39934 ft 423 kts 326°
2026-04-23 14:14 26.60234 30.47313 39937 ft 423 kts 326°
2026-04-23 14:14 26.65654 30.44837 39936 ft 422 kts 326°
2026-04-23 14:15 26.71086 30.42354 39938 ft 421 kts 326°
2026-04-23 14:15 26.76500 30.39876 39947 ft 420 kts 326°
2026-04-23 14:16 26.81880 30.37411 39948 ft 419 kts 326°
2026-04-23 14:16 26.87287 30.34930 39959 ft 420 kts 327°
2026-04-23 14:17 26.92666 30.32460 39950 ft 419 kts 327°
2026-04-23 14:17 26.98077 30.29973 39952 ft 419 kts 327°
2026-04-23 14:18 27.03486 30.27485 39950 ft 419 kts 327°
2026-04-23 14:18 27.08887 30.24996 39941 ft 420 kts 327°
2026-04-23 14:19 27.14267 30.22516 39941 ft 420 kts 327°
2026-04-23 14:19 27.19685 30.20016 39944 ft 420 kts 327°
2026-04-23 14:20 27.25099 30.17515 39937 ft 420 kts 327°
2026-04-23 14:20 27.30475 30.15028 39951 ft 420 kts 327°
2026-04-23 14:21 27.35889 30.12522 39941 ft 420 kts 327°
2026-04-23 14:21 27.41298 30.10014 39950 ft 421 kts 327°
2026-04-23 14:22 27.46692 30.07511 39945 ft 422 kts 327°
2026-04-23 14:22 27.52115 30.04993 39938 ft 421 kts 327°
2026-04-23 14:23 27.57539 30.02472 39934 ft 421 kts 327°
2026-04-23 14:23 27.62956 29.99951 39928 ft 420 kts 327°
2026-04-23 14:24 27.68319 29.97453 39932 ft 419 kts 327°
2026-04-23 14:24 27.73717 29.94935 39958 ft 419 kts 327°
2026-04-23 14:25 27.79106 29.92418 39937 ft 419 kts 327°
2026-04-23 14:25 27.84495 29.89899 39918 ft 418 kts 327°
2026-04-23 14:26 27.89839 29.87398 39928 ft 418 kts 327°
2026-04-23 14:26 27.95205 29.84885 39922 ft 417 kts 327°
2026-04-23 14:27 28.00575 29.82366 39936 ft 417 kts 328°
2026-04-23 14:27 28.05940 29.79846 39922 ft 417 kts 328°
2026-04-23 14:28 28.11257 29.77348 39918 ft 416 kts 328°
2026-04-23 14:28 28.16606 29.74832 39913 ft 415 kts 328°
2026-04-23 14:29 28.21939 29.72321 39908 ft 415 kts 328°
2026-04-23 14:29 28.27258 29.69813 39906 ft 413 kts 328°
2026-04-23 14:30 28.32576 29.67302 39929 ft 413 kts 328°
2026-04-23 14:30 28.37844 29.64812 39912 ft 413 kts 328°
2026-04-23 14:31 28.43160 29.62298 39906 ft 412 kts 328°
2026-04-23 14:31 28.48456 29.59790 39905 ft 412 kts 328°
2026-04-23 14:32 28.53746 29.57282 39896 ft 412 kts 328°
2026-04-23 14:32 28.59006 29.54785 39895 ft 412 kts 328°
2026-04-23 14:33 28.64299 29.52269 39900 ft 413 kts 329°
2026-04-23 14:33 28.69610 29.49743 39894 ft 413 kts 329°
2026-04-23 14:34 28.74880 29.47235 39887 ft 412 kts 329°
2026-04-23 14:34 28.80171 29.44713 39885 ft 411 kts 329°
2026-04-23 14:35 28.85448 29.42196 39884 ft 411 kts 329°
2026-04-23 14:35 28.90723 29.39675 39898 ft 410 kts 329°
2026-04-23 14:36 28.95961 29.37170 39885 ft 410 kts 329°
2026-04-23 14:36 29.01228 29.34648 39880 ft 410 kts 329°
2026-04-23 14:37 29.06481 29.32130 39881 ft 409 kts 329°
2026-04-23 14:37 29.11741 29.29606 39880 ft 409 kts 329°
2026-04-23 14:38 29.16950 29.27104 39880 ft 409 kts 329°
2026-04-23 14:38 29.22198 29.24580 39895 ft 409 kts 329°
2026-04-23 14:39 29.27438 29.22056 39874 ft 409 kts 329°
2026-04-23 14:39 29.32682 29.19530 39882 ft 408 kts 329°
2026-04-23 14:40 29.37919 29.17003 39876 ft 408 kts 329°
2026-04-23 14:40 29.43151 29.14475 39882 ft 407 kts 329°
2026-04-23 14:41 29.48350 29.11961 39897 ft 408 kts 329°
2026-04-23 14:41 29.53581 29.09428 39886 ft 407 kts 329°
2026-04-23 14:42 29.58805 29.06896 39884 ft 407 kts 329°
2026-04-23 14:42 29.64031 29.04360 39885 ft 407 kts 329°
2026-04-23 14:43 29.69222 29.01838 39889 ft 406 kts 329°
2026-04-23 14:43 29.74436 28.99303 39888 ft 406 kts 329°
2026-04-23 14:44 29.79650 28.96764 39894 ft 406 kts 329°
2026-04-23 14:44 29.84829 28.94239 39895 ft 406 kts 330°
2026-04-23 14:45 29.90042 28.91696 39887 ft 406 kts 330°
2026-04-23 14:45 29.95247 28.89153 39877 ft 406 kts 330°
2026-04-23 14:46 30.00455 28.86606 39880 ft 406 kts 330°
2026-04-23 14:46 30.05659 28.84058 39886 ft 406 kts 329°
2026-04-23 14:47 30.10827 28.81524 39884 ft 406 kts 329°
2026-04-23 14:47 30.16022 28.78974 39884 ft 405 kts 329°
2026-04-23 14:48 30.21213 28.76424 39886 ft 405 kts 329°
2026-04-23 14:48 30.26401 28.73872 39885 ft 405 kts 329°
2026-04-23 14:49 30.31598 28.71312 39905 ft 405 kts 329°
2026-04-23 14:49 30.36756 28.68769 39893 ft 405 kts 329°
2026-04-23 14:50 30.41944 28.66208 39913 ft 405 kts 329°
2026-04-23 14:50 30.47145 28.63638 39898 ft 405 kts 329°
2026-04-23 14:51 30.52332 28.61071 39895 ft 405 kts 329°
2026-04-23 14:51 30.57515 28.58504 39915 ft 405 kts 329°
2026-04-23 14:52 30.62665 28.55951 39925 ft 405 kts 329°
2026-04-23 14:52 30.67850 28.53376 39928 ft 405 kts 329°
2026-04-23 14:53 30.73040 28.50796 39930 ft 405 kts 329°
2026-04-23 14:53 30.78222 28.48218 39936 ft 404 kts 329°
2026-04-23 14:54 30.83396 28.45639 39939 ft 405 kts 329°
2026-04-23 14:54 30.88541 28.43072 39954 ft 404 kts 329°
2026-04-23 14:55 30.93724 28.40484 39945 ft 405 kts 329°
2026-04-23 14:55 30.98915 28.37888 39931 ft 405 kts 329°
2026-04-23 14:56 31.04068 28.35309 39943 ft 405 kts 329°
2026-04-23 14:56 31.08389 28.33143 39939 ft 405 kts 329°
2026-04-23 14:57 31.13579 28.30540 39937 ft 405 kts 329°
2026-04-23 14:57 31.18738 28.27948 39944 ft 406 kts 329°
2026-04-23 14:58 31.23928 28.25338 39938 ft 406 kts 329°
2026-04-23 14:58 31.29117 28.22726 39936 ft 405 kts 329°
2026-04-23 14:59 31.34268 28.20129 39932 ft 405 kts 329°
2026-04-23 14:59 31.39444 28.17517 39934 ft 405 kts 329°
2026-04-23 15:00 31.44623 28.14900 39957 ft 405 kts 329°
2026-04-23 15:00 31.49770 28.12295 39940 ft 405 kts 329°
2026-04-23 15:01 31.54947 28.09673 39930 ft 405 kts 329°
2026-04-23 15:01 31.60124 28.07047 39937 ft 405 kts 329°
2026-04-23 15:02 31.65300 28.04420 39931 ft 405 kts 329°
2026-04-23 15:02 31.70485 28.01784 39929 ft 405 kts 329°
2026-04-23 15:03 31.75658 27.99150 39934 ft 405 kts 329°
2026-04-23 15:03 31.80802 27.96528 39932 ft 405 kts 329°
2026-04-23 15:04 31.85973 27.93890 39929 ft 405 kts 329°
2026-04-23 15:04 31.91144 27.91249 39924 ft 404 kts 329°
2026-04-23 15:05 31.96315 27.88604 39920 ft 404 kts 329°
2026-04-23 15:05 32.01436 27.85981 39940 ft 404 kts 329°
2026-04-23 15:06 32.06596 27.83335 39928 ft 404 kts 329°
2026-04-23 15:06 32.11754 27.80687 39918 ft 404 kts 329°
2026-04-23 15:07 32.16902 27.78041 39923 ft 403 kts 329°
2026-04-23 15:07 32.22046 27.75393 39921 ft 403 kts 329°
2026-04-23 15:08 32.27152 27.72762 39944 ft 403 kts 329°
2026-04-23 15:09 32.34881 27.68773 39921 ft 403 kts 329°
2026-04-23 15:09 32.40021 27.66116 39916 ft 403 kts 329°
2026-04-23 15:10 32.45129 27.63472 39916 ft 403 kts 329°
2026-04-23 15:10 32.50267 27.60810 39918 ft 402 kts 329°
2026-04-23 15:11 32.55402 27.58146 39935 ft 402 kts 329°
2026-04-23 15:11 32.60532 27.55480 39920 ft 403 kts 329°
2026-04-23 15:12 32.65640 27.52823 39915 ft 403 kts 329°
2026-04-23 15:12 32.70769 27.50152 39914 ft 402 kts 329°
2026-04-23 15:13 32.75905 27.47474 39917 ft 402 kts 329°
2026-04-23 15:13 32.81029 27.44799 39914 ft 402 kts 329°
2026-04-23 15:14 32.86151 27.42121 39914 ft 402 kts 329°
2026-04-23 15:14 32.91277 27.39438 39912 ft 402 kts 329°
2026-04-23 15:15 32.96359 27.36774 39914 ft 402 kts 329°
2026-04-23 15:15 33.01474 27.34090 39912 ft 402 kts 329°
2026-04-23 15:16 33.06592 27.31401 39912 ft 401 kts 329°
2026-04-23 15:16 33.11704 27.28711 39918 ft 402 kts 329°
2026-04-23 15:17 33.16797 27.26027 39914 ft 402 kts 328°
2026-04-23 15:17 33.21912 27.23330 39912 ft 402 kts 328°
2026-04-23 15:18 33.27030 27.20627 39913 ft 402 kts 328°
2026-04-23 15:18 33.32146 27.17921 39912 ft 402 kts 328°
2026-04-23 15:19 33.37261 27.15213 39942 ft 402 kts 328°
2026-04-23 15:19 33.42342 27.12519 39922 ft 402 kts 328°
2026-04-23 15:20 33.47459 27.09802 39906 ft 402 kts 328°
2026-04-23 15:20 33.52566 27.07089 39915 ft 401 kts 328°
2026-04-23 15:21 33.57672 27.04371 39913 ft 401 kts 328°
2026-04-23 15:21 33.62773 27.01652 39909 ft 400 kts 328°
2026-04-23 15:22 33.67845 26.98945 39919 ft 401 kts 328°
2026-04-23 15:22 33.72948 26.96218 39912 ft 401 kts 328°
2026-04-23 15:23 33.78046 26.93490 39910 ft 401 kts 328°
2026-04-23 15:23 33.83144 26.90759 39913 ft 401 kts 328°
2026-04-23 15:24 33.88243 26.88023 39911 ft 401 kts 328°
2026-04-23 15:24 33.93326 26.85292 39918 ft 402 kts 328°
2026-04-23 15:25 33.98443 26.82538 39916 ft 401 kts 328°
2026-04-23 15:25 34.03058 26.78998 39920 ft 390 kts 315°
2026-04-23 15:26 34.07314 26.74998 39913 ft 389 kts 315°
2026-04-23 15:26 34.11597 26.70975 39911 ft 390 kts 315°
2026-04-23 15:27 34.15868 26.66985 39913 ft 390 kts 315°
2026-04-23 15:27 34.20193 26.62954 39938 ft 390 kts 315°
2026-04-23 15:28 34.24466 26.58971 39922 ft 390 kts 315°
2026-04-23 15:28 34.28773 26.54952 39921 ft 390 kts 316°
2026-04-23 15:29 34.33045 26.50960 39913 ft 389 kts 315°
2026-04-23 15:29 34.37327 26.46953 39914 ft 389 kts 315°
2026-04-23 15:30 34.41597 26.42952 39913 ft 388 kts 315°
2026-04-23 15:30 34.45863 26.38949 39917 ft 387 kts 315°
2026-04-23 15:31 34.50117 26.34952 39930 ft 387 kts 315°
2026-04-23 15:31 34.54370 26.30949 39921 ft 387 kts 315°
2026-04-23 15:32 34.58604 26.26961 39921 ft 387 kts 315°
2026-04-23 15:32 34.62866 26.22940 39910 ft 387 kts 316°
2026-04-23 15:33 34.67125 26.18917 39919 ft 387 kts 316°
2026-04-23 15:33 34.71358 26.14913 39916 ft 388 kts 316°
2026-04-23 15:34 34.75622 26.10874 39916 ft 388 kts 316°
2026-04-23 15:34 34.79892 26.06824 39937 ft 389 kts 316°
2026-04-23 15:35 34.84144 26.02785 39929 ft 390 kts 316°
2026-04-23 15:35 34.88425 25.98714 39922 ft 390 kts 316°
2026-04-23 15:36 34.92703 25.94641 39920 ft 390 kts 316°
2026-04-23 15:36 34.96981 25.90562 39920 ft 390 kts 316°
2026-04-23 15:37 35.01264 25.86471 39934 ft 390 kts 316°
2026-04-23 15:37 35.04818 25.83073 39935 ft 390 kts 316°
2026-04-23 15:38 35.09786 25.78317 39941 ft 390 kts 315°
2026-04-23 15:38 35.14047 25.74217 39953 ft 390 kts 315°
2026-04-23 15:39 35.18306 25.70107 39946 ft 390 kts 315°
2026-04-23 15:39 35.22538 25.66025 39944 ft 389 kts 315°
2026-04-23 15:40 35.26733 25.61987 39964 ft 389 kts 315°
2026-04-23 15:40 35.31001 25.57875 39961 ft 390 kts 315°
2026-04-23 15:41 35.35268 25.53755 39950 ft 390 kts 315°
2026-04-23 15:41 35.39503 25.49662 39966 ft 389 kts 315°
2026-04-23 15:42 35.43758 25.45542 39958 ft 389 kts 315°
2026-04-23 15:42 35.48009 25.41421 39957 ft 388 kts 315°
2026-04-23 15:43 35.52224 25.37328 39957 ft 388 kts 315°
2026-04-23 15:43 35.56456 25.33213 39961 ft 387 kts 315°
2026-04-23 15:44 35.60686 25.29094 39974 ft 387 kts 315°
2026-04-23 15:44 35.64883 25.25002 39962 ft 387 kts 315°
2026-04-23 15:45 35.69107 25.20878 39966 ft 387 kts 315°
2026-04-23 15:45 35.73314 25.16764 39949 ft 386 kts 315°
2026-04-23 15:46 35.77519 25.12647 39963 ft 386 kts 315°
2026-04-23 15:46 35.81715 25.08534 39958 ft 385 kts 315°
2026-04-23 15:47 35.85907 25.04417 39960 ft 385 kts 315°
2026-04-23 15:47 35.90101 25.00293 39968 ft 386 kts 315°
2026-04-23 15:48 35.93593 24.96855 39960 ft 386 kts 315°
2026-04-23 15:48 35.98475 24.92041 39970 ft 386 kts 315°
2026-04-23 15:49 36.01967 24.88594 39961 ft 386 kts 315°
2026-04-23 15:49 36.06157 24.84453 39962 ft 385 kts 315°
2026-04-23 15:50 36.10344 24.80312 39963 ft 385 kts 315°
2026-04-23 15:50 36.14536 24.76161 39967 ft 385 kts 315°
2026-04-23 15:51 36.18719 24.72013 39966 ft 385 kts 315°
2026-04-23 15:51 36.22870 24.67889 39964 ft 385 kts 315°
2026-04-23 15:52 36.27043 24.63737 39977 ft 385 kts 315°
2026-04-23 15:52 36.31217 24.59580 39969 ft 385 kts 315°
2026-04-23 15:53 36.35394 24.55413 39967 ft 385 kts 315°
2026-04-23 15:53 36.39564 24.51246 39967 ft 385 kts 315°
2026-04-23 15:54 36.43719 24.47089 39967 ft 385 kts 315°
2026-04-23 15:54 36.47888 24.42913 39967 ft 385 kts 314°
2026-04-23 15:55 36.52057 24.38726 39965 ft 385 kts 314°
2026-04-23 15:55 36.56210 24.34547 39975 ft 386 kts 314°
2026-04-23 15:56 36.60387 24.30338 39973 ft 387 kts 314°
2026-04-23 15:56 36.64055 24.25587 39979 ft 379 kts 304°
2026-04-23 15:57 36.67437 24.20526 39974 ft 379 kts 304°
2026-04-23 15:57 36.70828 24.15473 39973 ft 380 kts 304°
2026-04-23 15:58 36.74237 24.10412 39988 ft 389 kts 304°
2026-04-23 15:58 36.77784 24.05147 39991 ft 403 kts 305°
2026-04-23 15:59 36.81416 23.99763 39985 ft 406 kts 305°
2026-04-23 15:59 36.85018 23.94429 39980 ft 396 kts 305°
2026-04-23 16:00 36.88567 23.89156 39988 ft 397 kts 305°
2026-04-23 16:00 36.92130 23.83845 39982 ft 399 kts 305°
2026-04-23 16:01 36.95704 23.78511 39982 ft 401 kts 305°
2026-04-23 16:01 36.99274 23.73176 39987 ft 403 kts 305°
2026-04-23 16:02 37.02884 23.67771 39991 ft 407 kts 305°
2026-04-23 16:02 37.06529 23.62305 39985 ft 410 kts 305°
2026-04-23 16:03 37.10195 23.56802 39985 ft 412 kts 305°
2026-04-23 16:03 37.13863 23.51287 39981 ft 412 kts 305°
2026-04-23 16:04 37.17505 23.45801 40013 ft 410 kts 305°
2026-04-23 16:04 37.21152 23.40297 39997 ft 410 kts 306°
2026-04-23 16:05 37.24178 23.35725 39992 ft 409 kts 306°
2026-04-23 16:05 37.28420 23.29302 39993 ft 408 kts 305°
2026-04-23 16:06 37.32041 23.23810 39994 ft 407 kts 305°
2026-04-23 16:06 37.35628 23.18360 39999 ft 407 kts 305°
2026-04-23 16:07 37.39234 23.12872 39998 ft 407 kts 305°
2026-04-23 16:07 37.42835 23.07384 39989 ft 407 kts 306°
2026-04-23 16:08 37.46441 23.01878 40002 ft 407 kts 306°
2026-04-23 16:08 37.50026 22.96394 40025 ft 409 kts 306°
2026-04-23 16:09 37.53657 22.90830 40011 ft 411 kts 306°
2026-04-23 16:09 37.57291 22.85254 40017 ft 413 kts 306°
2026-04-23 16:10 37.60944 22.79639 40015 ft 415 kts 306°
2026-04-23 16:10 37.64607 22.73998 40010 ft 416 kts 306°
2026-04-23 16:11 37.68264 22.68358 39998 ft 417 kts 306°
2026-04-23 16:11 37.71944 22.62672 40000 ft 418 kts 306°
2026-04-23 16:12 37.75621 22.56982 39998 ft 418 kts 306°
2026-04-23 16:12 37.79289 22.51284 39988 ft 418 kts 306°
2026-04-23 16:13 37.82896 22.45512 39980 ft 418 kts 304°
2026-04-23 16:13 37.86362 22.39603 39791 ft 422 kts 303°
2026-04-23 16:13 37.88044 22.36549 39736 ft 423 kts 302°
2026-04-23 16:14 37.91241 22.30316 39865 ft 419 kts 299°
2026-04-23 16:14 37.94434 22.24179 39966 ft 420 kts 312°
2026-04-23 16:15 37.98819 22.19213 39980 ft 422 kts 314°
2026-04-23 16:15 38.02945 22.13978 39979 ft 422 kts 309°
2026-04-23 16:16 38.06778 22.08358 39979 ft 421 kts 307°
2026-04-23 16:16 38.10472 22.02594 39980 ft 421 kts 306°
2026-04-23 16:17 38.14140 21.96787 39999 ft 420 kts 306°
2026-04-23 16:17 38.17802 21.90983 39967 ft 421 kts 306°
2026-04-23 16:18 38.21471 21.85171 39969 ft 420 kts 306°
2026-04-23 16:18 38.25132 21.79366 39970 ft 421 kts 306°
2026-04-23 16:19 38.28780 21.73573 39956 ft 422 kts 307°
2026-04-23 16:19 38.32447 21.67741 39959 ft 422 kts 307°
2026-04-23 16:20 38.36076 21.61960 39399 ft 418 kts 307°
2026-04-23 16:20 38.37892 21.59061 38835 ft 417 kts 307°
2026-04-23 16:20 38.39701 21.56172 38123 ft 417 kts 306°
2026-04-23 16:21 38.41515 21.53273 37413 ft 417 kts 306°
2026-04-23 16:21 38.43316 21.50392 36745 ft 416 kts 306°
2026-04-23 16:21 38.45113 21.47514 36081 ft 414 kts 306°
2026-04-23 16:21 38.46910 21.44633 35375 ft 414 kts 306°
2026-04-23 16:22 38.48707 21.41750 34630 ft 415 kts 306°
2026-04-23 16:22 38.50487 21.38891 33843 ft 417 kts 306°
2026-04-23 16:22 38.52289 21.35995 32921 ft 417 kts 306°
2026-04-23 16:22 38.54090 21.33099 32079 ft 415 kts 305°
2026-04-23 16:23 38.55886 21.30209 31218 ft 414 kts 304°
2026-04-23 16:23 38.57676 21.27327 30336 ft 412 kts 304°
2026-04-23 16:23 38.59452 21.24462 29330 ft 411 kts 304°
2026-04-23 16:23 38.61219 21.21611 28559 ft 403 kts 304°
2026-04-23 16:24 38.62945 21.18828 27882 ft 395 kts 304°
2026-04-23 16:24 38.64630 21.16105 27236 ft 386 kts 304°
2026-04-23 16:24 38.66262 21.13466 26620 ft 379 kts 304°
2026-04-23 16:24 38.67885 21.10837 25993 ft 374 kts 304°
2026-04-23 16:25 38.69484 21.08244 25385 ft 368 kts 304°
2026-04-23 16:25 38.71068 21.05673 24774 ft 368 kts 304°
2026-04-23 16:25 38.72670 21.03067 24175 ft 377 kts 304°
2026-04-23 16:25 38.74303 21.00413 23515 ft 377 kts 304°
2026-04-23 16:26 38.75916 20.97793 22800 ft 371 kts 304°
2026-04-23 16:26 38.77499 20.95222 22164 ft 364 kts 304°
2026-04-23 16:26 38.79035 20.92725 21543 ft 358 kts 305°
2026-04-23 16:26 38.80565 20.90232 20939 ft 354 kts 305°
2026-04-23 16:27 38.82090 20.87742 20176 ft 356 kts 305°
2026-04-23 16:27 38.83627 20.85228 19219 ft 361 kts 306°
2026-04-23 16:27 38.85188 20.82673 18343 ft 364 kts 306°
2026-04-23 16:27 38.86747 20.80122 17547 ft 362 kts 307°
2026-04-23 16:28 38.88275 20.77622 17241 ft 347 kts 307°
2026-04-23 16:28 38.89728 20.75245 17091 ft 330 kts 307°
2026-04-23 16:28 38.91098 20.73001 16970 ft 315 kts 307°
2026-04-23 16:28 38.92419 20.70837 16935 ft 299 kts 307°
2026-04-23 16:29 38.93670 20.68784 16928 ft 285 kts 307°
2026-04-23 16:29 38.94887 20.66785 16685 ft 285 kts 307°
2026-04-23 16:29 38.96137 20.64726 15895 ft 299 kts 307°
2026-04-23 16:29 38.97439 20.62583 15018 ft 310 kts 307°
2026-04-23 16:30 38.98778 20.60376 14094 ft 323 kts 307°
2026-04-23 16:30 39.00184 20.58059 13094 ft 333 kts 308°
2026-04-23 16:30 39.01635 20.55668 12072 ft 341 kts 308°
2026-04-23 16:30 39.03109 20.53237 11094 ft 347 kts 308°
2026-04-23 16:31 39.04596 20.50782 10379 ft 346 kts 308°
2026-04-23 16:31 39.06036 20.48402 10247 ft 327 kts 308°
2026-04-23 16:31 39.07402 20.46144 10114 ft 311 kts 309°
2026-04-23 16:31 39.08685 20.44021 10010 ft 297 kts 309°
2026-04-23 16:32 39.09929 20.41959 9846 ft 287 kts 309°
2026-04-23 16:32 39.11148 20.39941 9461 ft 284 kts 309°
2026-04-23 16:32 39.12363 20.37928 9028 ft 284 kts 309°
2026-04-23 16:32 39.13573 20.35922 8625 ft 283 kts 310°
2026-04-23 16:33 39.14778 20.33922 8260 ft 281 kts 311°
2026-04-23 16:33 39.15973 20.31938 7960 ft 280 kts 310°
2026-04-23 16:33 39.17170 20.29950 7655 ft 280 kts 310°
2026-04-23 16:33 39.18362 20.27968 7313 ft 280 kts 310°
2026-04-23 16:34 39.19550 20.25992 6947 ft 278 kts 310°
2026-04-23 16:34 39.20332 20.24690 6732 ft 276 kts 310°
2026-04-23 16:34 39.21884 20.22104 6249 ft 274 kts 311°
2026-04-23 16:34 39.23054 20.20155 5856 ft 274 kts 311°
2026-04-23 16:35 39.24215 20.18220 5505 ft 272 kts 311°
2026-04-23 16:35 39.24980 20.16943 5279 ft 270 kts 311°
2026-04-23 16:35 39.26130 20.15024 4926 ft 269 kts 310°
2026-04-23 16:35 39.27269 20.13121 4669 ft 264 kts 310°
2026-04-23 16:36 39.28365 20.11285 4577 ft 252 kts 309°
2026-04-23 16:36 39.29413 20.09531 4505 ft 241 kts 309°
2026-04-23 16:36 39.30418 20.07848 4416 ft 231 kts 310°
2026-04-23 16:36 39.31379 20.06240 4352 ft 222 kts 310°
2026-04-23 16:37 39.32302 20.04694 4284 ft 212 kts 310°
2026-04-23 16:37 39.33185 20.03214 4226 ft 203 kts 311°
2026-04-23 16:37 39.34021 20.01812 4052 ft 197 kts 310°
2026-04-23 16:37 39.34835 20.00446 3964 ft 185 kts 311°
2026-04-23 16:38 39.35608 19.99150 3901 ft 181 kts 310°
2026-04-23 16:38 39.36603 19.98179 3806 ft 183 kts 347°
2026-04-23 16:38 39.37877 19.98060 3770 ft 184 kts 358°
2026-04-23 16:38 39.39145 19.97992 3685 ft 180 kts 358°
2026-04-23 16:39 39.40349 19.97925 3579 ft 168 kts 358°
2026-04-23 16:39 39.41495 19.97862 3393 ft 162 kts 358°
2026-04-23 16:39 39.42578 19.97744 3221 ft 155 kts 348°
2026-04-23 16:39 39.43595 19.97383 3076 ft 149 kts 345°
2026-04-23 16:40 39.44583 19.97005 2939 ft 147 kts 343°
2026-04-23 16:40 39.45553 19.96625 2750 ft 142 kts 343°
2026-04-23 16:40 39.46465 19.96273 2590 ft 131 kts 343°
2026-04-23 16:40 39.47311 19.95952 2456 ft 120 kts 343°
2026-04-23 16:41 39.48089 19.95657 2326 ft 117 kts 342°
2026-04-23 16:41 39.48879 19.95358 2142 ft 117 kts 342°
2026-04-23 16:41 39.49647 19.95070 1960 ft 112 kts 341°
2026-04-23 16:41 39.50400 19.94786 1811 ft 113 kts 341°
2026-04-23 16:42 39.51163 19.94496 1682 ft 116 kts 341°
2026-04-23 16:42 39.51934 19.94200 1545 ft 111 kts 339°
2026-04-23 16:42 39.52623 19.93695 1402 ft 117 kts 328°
2026-04-23 16:42 39.53317 19.93129 1261 ft 116 kts 335°
2026-04-23 16:43 39.54080 19.92818 1132 ft 114 kts 348°
2026-04-23 16:43 39.54862 19.92611 986 ft 114 kts 346°
2026-04-23 16:43 39.55640 19.92405 766 ft 116 kts 346°
2026-04-23 16:43 39.56447 19.92214 600 ft 118 kts 343°
2026-04-23 16:44 39.57287 19.91973 468 ft 127 kts 344°
2026-04-23 16:44 39.58163 19.91757 316 ft 128 kts 341°
2026-04-23 16:44 39.59020 19.91520 103 ft 126 kts 342°
2026-04-23 16:44 39.59866 19.91297 21 ft 111 kts 348°
2026-04-23 16:45 39.60415 19.91156 18 ft 49 kts 348°
2026-04-23 16:45 39.60648 19.91095 18 ft 32 kts 349°
2026-04-23 16:45 39.60857 19.91041 19 ft 28 kts 348°
2026-04-23 16:45 39.60980 19.91010 20 ft 14 kts 348°
2026-04-23 16:46 39.61031 19.91039 20 ft 8 kts 57°
2026-04-23 16:46 39.61060 19.91092 18 ft 7 kts 54°
2026-04-23 16:46 39.61042 19.91126 19 ft 6 kts 165°
2026-04-23 16:46 39.60995 19.91139 19 ft 9 kts 168°
2026-04-23 16:47 39.60908 19.91162 20 ft 15 kts 168°
2026-04-23 16:47 39.60799 19.91190 18 ft 16 kts 169°
2026-04-23 16:47 39.60691 19.91218 17 ft 13 kts 169°
2026-04-23 16:47 39.60619 19.91257 18 ft 11 kts 118°
2026-04-23 16:48 39.60624 19.91332 18 ft 9 kts 79°
2026-04-23 16:48 39.60629 19.91366 18 ft 0 kts 79°